Regional Weather Roundup
Issued by NWS Upton, NY

Home | Current Version | Previous Version | Text Only | Print | Product List | Glossary On
Versions: 1 2 3 4 5 6 7 8 9 10 11 12 13 14 15 16 17 18 19 20 21 22 23 24 25 26 27 28
000
ASUS41 KOKX 061704
RWROKX

REGIONAL WEATHER ROUNDUP
NATIONAL WEATHER SERVICE NEW YORK NY
100 PM EDT FRI MAY 06 2016

NOTE: "FAIR" INDICATES FEW OR NO CLOUDS BELOW 12,000 FEET WITH NO
SIGNIFICANT WEATHER AND/OR OBSTRUCTIONS TO VISIBILITY.

NYZ071-072-176-178-NJZ106-104-061800-
NEW YORK CITY METRO AREA


CITY           SKY/WX    TMP DP  RH WIND       PRES   REMARKS
CENTRAL PARK   CLOUDY    50  46  86 E9G18     29.75S FOG
LAGUARDIA APRT LGT RAIN  52  50  93 NE13      29.73S FOG
KENNEDY INTL   DRIZZLE   50  47  89 E22G28    29.74S
NEWARK/LIBERTY LGT RAIN  50  48  93 NE12      29.72F FOG
BRNX BOT. GARD   N/A     50  46  87 NE2       29.74R
TETERBORO      CLOUDY    51  45  79 NE8G17    29.72S
$$

NYZ177-179-078>081-061800-
LONG ISLAND NEW YORK

CITY           SKY/WX    TMP DP  RH WIND       PRES   REMARKS
FARMINGDALE    CLOUDY    50  47  89 E13G25    29.74R
ISLIP          CLOUDY    51  46  83 E18G29    29.75R
SHIRLEY        CLOUDY    51  46  83 E9G22     29.77R
RIVERHEAD        N/A     54  48  82 SE9       29.76S
WESTHAMPTON    CLOUDY    46  45  96 E16G31    29.79R
EAST HAMPTON   CLOUDY    52  45  76 E16G29    29.78R
MONTAUK POINT  NOT AVBL
$$

NYZ052-065-067-061800-
HUDSON VALLEY

CITY           SKY/WX    TMP DP  RH WIND       PRES   REMARKS
WHITE PLAINS   CLOUDY    49  47  93 E13G21    29.74R FOG
NEWBURGH       NOT AVBL
MONTGOMERY     CLOUDY    51  48  89 NE10G18   29.74R
POUGHKEEPSIE   CLOUDY    55  51  86 N6        29.75S FOG
ALBANY         LGT RAIN  57  46  66 N6        29.79F
$$

NJZ001-105-106-008-010-013-015-019>022-104-061800-
NEW JERSEY

CITY           SKY/WX    TMP DP  RH WIND       PRES   REMARKS
NEWARK/LIBERTY LGT RAIN  50  48  93 NE12      29.72F FOG
TETERBORO      CLOUDY    51  45  79 NE8G17    29.72S
CALDWELL       LGT RAIN  50  47  89 E13       29.73S FOG
MORRISTOWN     NOT AVBL
SOMERVILLE     CLOUDY    51  48  89 E6        29.69S FOG
SUSSEX         LGT RAIN  51  47  86 NE12      29.72F
ANDOVER          N/A     51  49  92 NE6       29.71F
TRENTON        CLOUDY    50  47  89 E22G31    29.65F FOG
MILLVILLE      CLOUDY    53  47  79 NE15G22   29.61F
ATLANTIC CITY  LGT RAIN  51  49  92 NE10      29.60F FOG
WRIGHTSTOWN    CLOUDY    48  46  93 NE23G31   29.61F FOG
TOMS RIVER     CLOUDY    48  45  87 E20G28    29.64F
BELMAR         CLOUDY    48  46  93 E20G33    29.68S FOG
$$

PAZ047>061-062-071-061800-
EASTERN PENNSYLVANIA

CITY           SKY/WX    TMP DP  RH WIND       PRES   REMARKS
PHILADELPHIA   LGT RAIN  50  46  86 NE20      29.65F
ALLENTOWN      CLOUDY    53  48  83 NE18G26   29.68F HAZE
SCRANTON       LGT RAIN  50  47  89 N8        29.72F FOG
$$

CTZ002-004>006-009-010-012-RIZ004-006-007-MAZ004-011-015-061800-
SOUTHERN NEW ENGLAND
 IN CT

CITY           SKY/WX    TMP DP  RH WIND       PRES   REMARKS
BRADLEY INTL   CLOUDY    62  47  57 E10       29.77F
HARTFORD       CLOUDY    63  48  58 NE13      29.77F
DANBURY        CLOUDY    53  49  86 E8        29.75F
WTRBRY/OXFORD  PTSUNNY   55  46  71 E12       29.77R
BRIDGEPORT     CLOUDY    52  47  83 E18       29.75F
MERIDEN        CLOUDY    61  48  62 NE9G18    29.76S
NEW HAVEN      CLOUDY    53  47  79 E13G23    29.76R
CHESTER        CLOUDY    61  48  63 NE9G15    29.76S
GROTON         CLOUDY    54  48  80 E21       29.79R
WILLIMANTIC    CLOUDY    59  46  62 NE9       29.80R

 IN RI

CITY           SKY/WX    TMP DP  RH WIND       PRES   REMARKS
PROVIDENCE     PTSUNNY   59  46  62 NE17      29.83R
BLOCK ISLAND   LGT RAIN  48  46  93 E17G26    29.81R FOG
WESTERLY       LGT RAIN  55  45  68 E18       29.81R

 IN MA

CITY           SKY/WX    TMP DP  RH WIND       PRES   REMARKS
BOSTON         PTSUNNY   51  45  79 E16       29.87R
WORCESTER      CLOUDY    55  45  68 NE12      29.82S
WESTFIELD      CLOUDY    63  46  54 NE14G20   29.78F
PROVINCETOWN   PTSUNNY   51  45  79 NE14G21   29.88R
NANTUCKET      CLOUDY    51  44  77 E17G24    29.85R
$$

ANZ330-335-338-340-345-350-353-355-061800-
COASTAL MARINE OBSERVATIONS


STATION/POSITION TIME  SKY/WX   TEMP    WIND        PRES    VSBY  WAVE
                                AIR SEA DIR/SP/G                  HT/PER
                 (UTC)          (F)     (DEG/KT/KT) (MB)    (MI)  (FT/S)
NY HARB ENTRANCE 1550            48 49   70/ 27/ 31 1004.8          8/ 7
20S FIRE ISLAND  1550            47 47   80/ 27/ 35 1004.9          9/ 7
GREAT SOUTH BAY  1615            49 53   60/ 23/ 31   N/A
23 SSW MONTAUK P 1650            47 46   90/ 21/ 25 1007.6          8/ 6
15 E BARNEGAT LI 1622               49                N/A          10/ 8
HUDSON CANYON    1550            53 48              1004.3         10/ 8
KINGS POINT      1600            49 53              1006.5
EXECUTION ROCKS  NOT AVBL
CENTRAL LI SOUND 1615            50     100/ 17/ 21   N/A           2/ 4
EASTERN LI SOUND 1600            53 48   90/ 14/ 17   N/A
ROBBINS REEF     1600            49      70/ 14/ 16 1005.8
$$


>>>>>>>>>>>>>>>>>>>>>>>>>>>> KEY <<<<<<<<<<<<<<<<<<<<<<<<<<<
>                                                          <
>     SKY/WX - SKY CONDITION/PRESENT WEATHER               <
>     TMP    - TEMPERATURE IN FAHRENHEIT                   <
>     DP     - DEWPOINT IN FAHRENHEIT                      <
>     RH     - RELATIVE HUMIDITY IN PERCENT                <
>     WIND   - DIRECTION AND SPEED IN MPH                  <
>     PRES   - MEAN SEA LEVEL PRESSURE IN INCHES OF HG     <
>     WCI    - WIND CHILL INDEX                            <
>     VSB    - VISIBILITY IN MILES                         <
>     HX     - HEAT INDEX                                  <
>     TC     - TEMPERATURE IN CELSIUS                      <
>     VRB    - VARIABLE WIND DIRECTION                     <
>                                                          <
>>>>>>>>>>>>>>>>>>>>>>>>>>>> KEY <<<<<<<<<<<<<<<<<<<<<<<<<<<






USA.gov is the U.S. government's official web portal to all federal, state and local government web resources and services.